Home > Time Zones > World Clock > Weather > Qatar > Doha > Past weeks

Flag for Qatar Weather past 2 weeks in Doha, Qatar

Now
100 °F

Sunny.


Feels Like: 127 °F
Forecast: 87 / 112 °F
Wind: 5 mph from South

Location: Doha International Airport

Current Time: Aug 5, 2015 at 8:12:46 AM

Latest Report: Aug 5, 2015 at 7:00 AM


Visibility: 10 mi

Pressure: 29.56 "Hg

Humidity: 57%

Dew point: 82 °F

Historic Weather in Doha — Graph

°F

Doha temperature yesterday

Maximum temperature yesterday: 102 °F (at 1:00 PM)
Minimum temperature yesterday: 90 °F (at 1:00 AM)
Average temperature yesterday: 96 °F

Past Weeks' High & Low Weather Summary

 TemperatureHumidityPressure
High118 °F (Jul 27, 5:00 PM)84% (Jul 23, 2:00 AM)32.26 "Hg (Jul 23, 2:00 AM)
Low88 °F (Jul 23, 4:00 AM)9% (Jul 21, 11:00 AM)29.39 "Hg (Jul 21, 8:00 AM)
Average98 °F53%29.49 "Hg
* Reported Jul 21 6:00 AM — Aug 5 6:00 AM, Doha, Weather by CustomWeather, © 2015

Note: Actual official high and low records may vary slightly from our data, if they occured in-between our weather recording intervals... More about our weather records

Advertising

Doha weather history for previous 24 hours

 ConditionsComfort  
Time TempWeatherWind HumidityBarometerVisibility
6:00 AM
Wed, Aug 5
93 °FSunny.5 mph67%29.53 "Hg10 mi
5:00 AM91 °FClear.6 mph67%29.53 "Hg10 mi
4:00 AM91 °FClear.6 mph71%29.53 "Hg10 mi
3:00 AM91 °FClear.6 mph71%29.53 "Hg10 mi
2:00 AM91 °FClear.2 mph71%29.50 "Hg10 mi
1:00 AM91 °FClear.2 mph75%29.53 "Hg10 mi
12:00 AM93 °FClear.3 mph71%29.53 "Hg10 mi
11:00 PM
Tue, Aug 4
93 °FClear.6 mph71%29.53 "Hg10 mi
10:00 PM95 °FClear.3 mph63%29.56 "Hg10 mi
9:00 PM95 °FClear.5 mph63%29.56 "Hg10 mi
8:00 PM95 °FClear.8 mph63%29.56 "Hg10 mi
7:00 PM97 °FClear.7 mph60%29.53 "Hg4 mi
6:00 PM97 °FClear.7 mph60%29.50 "Hg4 mi
2:00 PM102 °FDuststorm.10 mph48%29.53 "Hg3 mi
1:00 PM102 °FDuststorm.9 mph51%29.56 "Hg3 mi
12:00 PM100 °FDuststorm.9 mph57%29.56 "Hg3 mi
11:00 AM100 °FExtremely hot.10 mph57%29.56 "HgN/A
10:00 AM100 °FDuststorm.13 mph57%29.59 "Hg3 mi
9:00 AM99 °FDuststorm.13 mph53%29.59 "Hg3 mi
8:00 AM99 °FDuststorm.10 mph57%29.56 "Hg3 mi
Weather by CustomWeather, © 2015

See weather overviewHow to use our weather pages